This demonstration page uses our WeatherBlox Daily Observations layout. Learn more.

Left ArrowRight Arrow

39.08367, -84.50855

Hourly Observations for August 30, 2017

Temp ( °F °C ) Dew Point ( °F °C ) Humidity (%) Winds ( mph kmh ) Pressure ( in mb ) Visibility ( mi km ) Precip ( " mm )
12:17 am 00:17 Cloudy with Fog 63 17.2 63 17.2 100 100 N N/A 30 1016 0.25 0.402335 N/A
12:22 am 00:22 Mostly Cloudy with Mist and Fog 63 17.2 63 17.2 100 100 N N/A 30 1016 1 1.60934 N/A
12:32 am 00:32 Mostly Cloudy with Fog 63 17.2 63 17.2 100 100 N N/A 30 1016 0.25 0.402335 N/A
12:53 am 00:53 Mostly Cloudy with Fog 64 17.8 64 17.8 100 100 N N/A 30.01 1016 5 8.0467 N/A
1:53 am 01:53 Mostly Cloudy with Fog 63 17.2 63 17.2 100 100 N N/A 30 1016 0.25 0.402335 N/A
2:53 am 02:53 Mostly Cloudy with Fog 63 17.2 63 17.2 100 100 N N/A 29.99 1016 0.25 0.402335 N/A
3:53 am 03:53 Mostly Cloudy with Fog 63 17.2 63 17.2 100 100 N N/A 30 1016 0.25 0.402335 N/A
4:53 am 04:53 Mostly Cloudy with Fog 64 17.8 64 17.8 100 100 N N/A 30.01 1016 0.25 0.402335 N/A
5:53 am 05:53 Mostly Cloudy with Fog 64 17.8 64 17.8 100 100 N N/A 30.02 1017 5 8.0467 N/A
6:53 am 06:53 Mostly Cloudy with Fog 64 17.8 64 17.8 100 100 N N/A 30.04 1017 0.25 0.402335 N/A
7:53 am 07:53 Mostly Cloudy with Fog 64 17.8 64 17.8 100 100 NNE 3 6 30.06 1018 5 8.0467 N/A
8:53 am 08:53 Mostly Cloudy with Fog 64 17.8 64 17.8 100 100 N N/A 30.07 1018 5 8.0467 N/A
9:13 am 09:13 Mostly Cloudy with Fog 65 18.3 65 18.3 100 100 ENE 3 6 30.06 1018 0.5 0.80467 N/A
9:38 am 09:38 Cloudy with Mist and Fog 65 18.3 65 18.3 100 100 E 3 6 30.06 1018 1.25 2.011675 N/A
9:50 am 09:50 Cloudy with Mist and Fog 65 18.3 65 18.3 100 100 E 3 6 30.07 1018 3 4.82802 N/A
9:52 am 09:52 Cloudy with Mist and Fog 65 18.3 65 18.3 100 100 N N/A 30.06 1018 2.5 4.02335 N/A
10:00 am 10:00 Mostly Cloudy with Mist and Fog 65 18.3 65 18.3 100 100 N N/A 30.06 1018 3 4.82802 N/A
10:18 am 10:18 Partly Cloudy with Mist and Fog 67 19.4 66 18.9 97 97 E 3 6 30.06 1018 5 8.0467 N/A
10:53 am 10:53 Partly Cloudy with Mist and Fog 71 21.7 67 19.4 87 87 VRB 3 6 30.08 1019 6 9.65604 N/A
11:53 am 11:53 Mostly Sunny 74 23.3 66 18.9 76 76 NE 5 7 30.08 1019 10 16.0934 N/A
12:53 pm 12:53 Sunny 78 25.6 66 18.9 67 67 VRB 5 7 30.06 1018 10 16.0934 N/A
1:53 pm 13:53 Partly Cloudy 79 26.1 64 17.8 60 60 N N/A 30.04 1017 10 16.0934 N/A
2:53 pm 14:53 Partly Cloudy 80 26.7 61 16.1 52 52 N 6 9 30.03 1017 10 16.0934 N/A
3:53 pm 15:53 Partly Cloudy 80 26.7 60 15.6 51 51 NE 3 6 30.02 1017 10 16.0934 N/A
4:53 pm 16:53 Partly Cloudy 80 26.7 62 16.7 54 54 SSW 3 6 30.01 1016 10 16.0934 N/A
5:53 pm 17:53 Sunny 80 26.7 62 16.7 54 54 SSE 3 6 30.01 1016 10 16.0934 N/A
6:53 pm 18:53 Partly Cloudy 77 25 69 20.6 77 77 SSE 3 6 30.01 1016 10 16.0934 N/A
7:53 pm 19:53 Mostly Cloudy 73 22.8 69 20.6 87 87 N N/A 30.02 1017 10 16.0934 N/A
8:53 pm 20:53 Partly Cloudy 70 21.1 67 19.4 90 90 N N/A 30.02 1017 10 16.0934 N/A
9:53 pm 21:53 Clear 68 20 66 18.9 93 93 N N/A 30.04 1017 10 16.0934 N/A
10:53 pm 22:53 Clear 67 19.4 66 18.9 97 97 N N/A 30.04 1017 10 16.0934 N/A
11:53 pm 23:53 Clear 65 18.3 65 18.3 100 100 N N/A 30.04 1017 9 14.48406 N/A

Powered by AerisWeather